Aérodrome :
LOGIN :

S'inscrire | Disclaimer

   EN    FR    IT 

 










Légende :    VFR   VFR Marginal   IFR   IFR Intensif   IFR Très Intensif
Visi : 
Plafond : 
>= 8 km
>= 3000ft
5 à 8 km
1000 à 3000 ft
1500m à 5 km
500 à 1000 ft
800 à 1500m
200 à 500 ft
< 800m
< 200 ft
Symboles :   Orages  Brouillard  Fortes neiges  Fortes précipitations  Vent > 20 kt
SIGMETs :   Divers  Orages  Givrage  Turbulence  Onde Orograph.  Cendres Volcan.







- Altitude de l'aérodrome : 13 ft
- Code IATA : CEQ
- Voir les cartes d'approche


LFMD - Cannes Mandelieu

DERNIER METAR :
  • 150130Z AUTO VRB02KT 9999 BKN062 05/02 Q1016

METARs EXPIRÉS :
  • 150100Z AUTO VRB03KT 9999 BKN062 05/03 Q1016
  • 150030Z AUTO VRB03KT 9999 BKN062 05/02 Q1016
  • 150000Z AUTO VRB03KT 9999 BKN062 05/03 Q1015
  • 142330Z AUTO VRB03KT 9999 BKN060 05/03 Q1015
  • 142300Z AUTO VRB03KT 9999 BKN054 05/02 Q1015

TAF TAF LFMD
Valide du 14 à 15h jusqu'au 15 à 15h UTC


141400Z 1415/1515 22007KT 9999 SCT040
BECMG 1417/1419 36008KT
BECMG 1511/1513 24008KT CAVOK
ATIS : +33 4 93 48 73 23
Pas de NOTAMs connus pour ce terrain.



MET'MAP, la Météo Aéronautique d'un coup d'oeil ! - Copyright ORBIFLY Décembre 2007 - Disclaimer

ORBIFLY MET'MAP TEAM :

Programmation & Développement : Alexandra Zaïnal
Conception & Développement : Baudouin d'Aumeries
Co-Programmation & Développement : Marc-Olivier Méhu
Soutien technique & logistique : Manuel Goepfert

Contact : metmap@orbifly.com




SOURCES & CREDITS :

   NOAA